2022-04-20 00:03:02 r, 18.46m,0000000004Hz,0000132697c,0000000.288s, 015.4C,00002191
2022-04-20 00:13:01 r, 18.35m,0000000003Hz,0000119692c,0000000.260s, 015.4C,00002191
2022-04-20 00:23:00 r, 18.41m,0000000003Hz,0000127303c,0000000.276s, 015.4C,00002191
2022-04-20 00:33:01 r, 18.17m,0000000005Hz,0000101679c,0000000.221s, 015.4C,00002191
2022-04-20 00:43:03 r, 18.03m,0000000005Hz,0000089200c,0000000.194s, 015.4C,00002191
2022-04-20 00:53:00 r, 18.16m,0000000005Hz,0000101240c,0000000.220s, 015.4C,00002191
2022-04-20 01:03:03 r, 18.15m,0000000005Hz,0000099962c,0000000.217s, 015.4C,00002191
2022-04-20 01:13:01 r, 18.11m,0000000005Hz,0000096661c,0000000.210s, 015.4C,00002191
2022-04-20 01:23:00 r, 18.12m,0000000005Hz,0000097188c,0000000.211s, 015.4C,00002191
2022-04-20 01:33:03 r, 18.31m,0000000004Hz,0000115706c,0000000.251s, 015.7C,00002191
2022-04-20 01:43:01 r, 18.15m,0000000005Hz,0000099866c,0000000.217s, 015.7C,00002191
2022-04-20 01:53:00 r, 18.14m,0000000004Hz,0000099296c,0000000.215s, 015.7C,00002191
2022-04-20 02:03:01 r, 18.03m,0000000005Hz,0000089830c,0000000.195s, 015.7C,00002191
2022-04-20 02:13:02 r, 18.13m,0000000005Hz,0000097980c,0000000.213s, 015.7C,00002191
2022-04-20 02:23:00 r, 18.10m,0000000005Hz,0000095108c,0000000.206s, 015.7C,00002191
2022-04-20 02:33:02 r, 18.03m,0000000005Hz,0000089265c,0000000.194s, 015.7C,00002191
2022-04-20 02:43:01 r, 18.00m,0000000005Hz,0000087461c,0000000.190s, 015.7C,00002191
2022-04-20 02:53:00 r, 18.30m,0000000004Hz,0000114326c,0000000.248s, 015.7C,00002191
2022-04-20 03:03:01 r, 18.06m,0000000005Hz,0000091229c,0000000.198s, 015.7C,00002191
2022-04-20 03:13:03 r, 17.96m,0000000005Hz,0000083870c,0000000.182s, 015.7C,00002191
2022-04-20 03:23:00 r, 17.90m,0000000006Hz,0000079554c,0000000.173s, 015.7C,00002191
2022-04-20 03:33:03 r, 17.96m,0000000006Hz,0000083937c,0000000.182s, 015.7C,00002191
2022-04-20 03:43:01 r, 17.78m,0000000006Hz,0000071415c,0000000.155s, 015.7C,00002191
2022-04-20 03:53:00 r, 17.63m,0000000008Hz,0000061526c,0000000.134s, 016.1C,00002191
2022-04-20 04:03:03 r, 17.66m,0000000007Hz,0000063749c,0000000.138s, 016.1C,00002191
2022-04-20 04:13:01 r, 17.77m,0000000007Hz,0000070531c,0000000.153s, 016.1C,00002191
2022-04-20 04:23:00 r, 17.64m,0000000007Hz,0000061979c,0000000.135s, 016.1C,00002191
2022-04-20 04:33:01 r, 17.85m,0000000006Hz,0000076023c,0000000.165s, 016.1C,00002191
2022-04-20 04:43:02 r, 17.91m,0000000006Hz,0000080595c,0000000.175s, 016.1C,00002191
2022-04-20 04:53:00 r, 17.91m,0000000006Hz,0000080751c,0000000.175s, 016.1C,00002191
2022-04-20 05:03:00 r, 17.89m,0000000006Hz,0000078340c,0000000.170s, 016.1C,00002191
2022-04-20 05:13:03 r, 17.74m,0000000006Hz,0000068762c,0000000.149s, 016.1C,00002191
2022-04-20 05:23:00 r, 17.42m,0000000009Hz,0000050898c,0000000.110s, 016.1C,00002191
2022-04-20 05:33:00 r, 16.49m,0000000021Hz,0000021659c,0000000.047s, 015.7C,00002191
2022-04-20 05:43:01 r, 15.05m,0000000080Hz,0000005747c,0000000.012s, 015.7C,00002191
2022-04-20 05:53:00 r, 13.51m,0000000332Hz,0000000000c,0000000.000s, 015.7C,00002191
2022-04-20 06:03:03 r, 11.64m,0000001871Hz,0000000000c,0000000.000s, 015.7C,00002191
2022-04-20 06:13:01 r, 09.85m,0000009768Hz,0000000000c,0000000.000s, 015.7C,00002191
2022-04-20 06:23:00 r, 08.55m,0000032103Hz,0000000000c,0000000.000s, 015.7C,00002191
2022-04-20 06:33:01 r, 07.56m,0000080346Hz,0000000000c,0000000.000s, 015.7C,00002191
2022-04-20 06:43:02 r, 06.86m,0000153342Hz,0000000000c,0000000.000s, 015.7C,00002191
2022-04-20 06:53:00 r, 06.22m,0000275011Hz,0000000000c,0000000.000s, 015.7C,00002191
2022-04-20 07:03:00 r, 00.00m,0000427790Hz,0000000000c,0000000.000s, 015.7C,00002191
2022-04-20 07:13:03 r, 00.00m,0000597709Hz,0000000000c,0000000.000s, 015.7C,00002191
2022-04-20 07:23:00 r, 00.00m,0000597754Hz,0000000000c,0000000.000s, 015.4C,00002191
2022-04-20 07:33:02 r, 00.00m,0000597715Hz,0000000000c,0000000.000s, 015.4C,00002191
2022-04-20 07:43:01 r, 00.00m,0000597708Hz,0000000000c,0000000.000s, 015.7C,00002191
2022-04-20 07:53:00 r, 00.00m,0000597673Hz,0000000000c,0000000.000s, 016.1C,00002191
2022-04-20 08:03:03 r, 00.00m,0000597713Hz,0000000000c,0000000.000s, 016.7C,00002191
2022-04-20 08:13:01 r, 00.00m,0000597659Hz,0000000000c,0000000.000s, 016.7C,00002191
2022-04-20 08:23:00 r, 00.00m,0000597646Hz,0000000000c,0000000.000s, 016.7C,00002191
2022-04-20 08:33:03 r, 00.00m,0000597601Hz,0000000000c,0000000.000s, 017.0C,00002191
2022-04-20 08:43:01 r, 00.00m,0000597518Hz,0000000000c,0000000.000s, 017.0C,00002191
2022-04-20 08:53:00 r, 00.00m,0000597545Hz,0000000000c,0000000.000s, 017.4C,00002191
2022-04-20 09:03:01 r, 00.00m,0000597415Hz,0000000000c,0000000.000s, 018.3C,00002191
2022-04-20 09:13:02 r, 00.00m,0000597406Hz,0000000000c,0000000.000s, 018.3C,00002191
2022-04-20 09:23:00 r, 00.00m,0000597402Hz,0000000000c,0000000.000s, 018.3C,00002191
2022-04-20 09:33:00 r, 00.00m,0000597307Hz,0000000000c,0000000.000s, 018.6C,00002191
2022-04-20 09:43:03 r, 00.00m,0000597284Hz,0000000000c,0000000.000s, 019.3C,00002191
2022-04-20 09:53:00 r, 00.00m,0000597312Hz,0000000000c,0000000.000s, 019.6C,00002191
2022-04-20 10:03:02 r, 00.00m,0000597321Hz,0000000000c,0000000.000s, 019.3C,00002191
2022-04-20 10:13:01 r, 00.00m,0000597438Hz,0000000000c,0000000.000s, 018.6C,00002191
2022-04-20 10:23:00 r, 00.00m,0000597308Hz,0000000000c,0000000.000s, 019.0C,00002191
2022-04-20 10:33:03 r, 00.00m,0000597349Hz,0000000000c,0000000.000s, 019.0C,00002191
2022-04-20 10:43:01 r, 00.00m,0000597300Hz,0000000000c,0000000.000s, 019.6C,00002191
2022-04-20 10:53:00 r, 00.00m,0000597229Hz,0000000000c,0000000.000s, 019.9C,00002191
2022-04-20 11:03:03 r, 00.00m,0000597160Hz,0000000000c,0000000.000s, 020.3C,00002191
2022-04-20 11:13:01 r, 00.00m,0000596967Hz,0000000000c,0000000.000s, 021.5C,00002191
2022-04-20 11:23:00 r, 00.00m,0000596751Hz,0000000000c,0000000.000s, 022.5C,00002191
2022-04-20 11:33:01 r, 00.00m,0000596713Hz,0000000000c,0000000.000s, 023.5C,00002191
2022-04-20 11:43:01 r, 00.00m,0000596664Hz,0000000000c,0000000.000s, 023.8C,00002191
2022-04-20 11:53:00 r, 00.00m,0000596733Hz,0000000000c,0000000.000s, 023.8C,00002191
2022-04-20 12:03:02 r, 00.00m,0000596567Hz,0000000000c,0000000.000s, 023.8C,00002191
2022-04-20 12:13:01 r, 00.00m,0000596558Hz,0000000000c,0000000.000s, 024.4C,00002191
2022-04-20 12:23:00 r, 00.00m,0000596374Hz,0000000000c,0000000.000s, 025.7C,00002191
2022-04-20 12:33:00 r, 00.00m,0000596059Hz,0000000000c,0000000.000s, 028.6C,00002191
2022-04-20 12:43:01 r, 00.00m,0000595731Hz,0000000000c,0000000.000s, 030.2C,00002191
2022-04-20 12:53:00 r, 00.00m,0000595758Hz,0000000000c,0000000.000s, 030.9C,00002191
2022-04-20 13:03:00 r, 00.00m,0000595527Hz,0000000000c,0000000.000s, 031.9C,00002191
2022-04-20 13:13:01 r, 00.00m,0000595385Hz,0000000000c,0000000.000s, 033.5C,00002191
2022-04-20 13:23:00 r, 00.00m,0000595138Hz,0000000000c,0000000.000s, 035.4C,00002191
2022-04-20 13:33:00 r, 00.00m,0000594991Hz,0000000000c,0000000.000s, 036.0C,00002191
2022-04-20 13:43:02 r, 00.00m,0000594843Hz,0000000000c,0000000.000s, 036.4C,00002191
2022-04-20 13:53:00 r, 00.00m,0000594950Hz,0000000000c,0000000.000s, 036.0C,00002191
2022-04-20 14:03:00 r, 00.00m,0000594877Hz,0000000000c,0000000.000s, 035.7C,00002191
2022-04-20 14:13:03 r, 00.00m,0000594860Hz,0000000000c,0000000.000s, 035.7C,00002191
2022-04-20 14:23:01 r, 00.00m,0000595004Hz,0000000000c,0000000.000s, 035.7C,00002191
2022-04-20 14:33:00 r, 00.00m,0000594909Hz,0000000000c,0000000.000s, 035.7C,00002191
2022-04-20 14:43:03 r, 00.00m,0000594924Hz,0000000000c,0000000.000s, 036.0C,00002191
2022-04-20 14:53:01 r, 00.00m,0000594912Hz,0000000000c,0000000.000s, 036.0C,00002191
2022-04-20 15:03:00 r, 00.00m,0000594885Hz,0000000000c,0000000.000s, 036.0C,00002191
2022-04-20 15:13:01 r, 00.00m,0000595015Hz,0000000000c,0000000.000s, 035.7C,00002191
2022-04-20 15:23:02 r, 00.00m,0000595090Hz,0000000000c,0000000.000s, 035.7C,00002191
2022-04-20 15:33:00 r, 00.00m,0000595038Hz,0000000000c,0000000.000s, 035.1C,00002191
2022-04-20 15:43:02 r, 00.00m,0000595006Hz,0000000000c,0000000.000s, 035.1C,00002191
2022-04-20 15:53:01 r, 00.00m,0000595144Hz,0000000000c,0000000.000s, 034.8C,00002191
2022-04-20 16:03:00 r, 00.00m,0000595198Hz,0000000000c,0000000.000s, 033.5C,00002191
2022-04-20 16:13:01 r, 00.00m,0000595274Hz,0000000000c,0000000.000s, 033.1C,00002191
2022-04-20 16:23:03 r, 00.00m,0000595370Hz,0000000000c,0000000.000s, 032.2C,00002191
2022-04-20 16:33:00 r, 00.00m,0000595525Hz,0000000000c,0000000.000s, 031.9C,00002191
2022-04-20 16:43:03 r, 00.00m,0000595551Hz,0000000000c,0000000.000s, 031.5C,00002191
2022-04-20 16:53:01 r, 00.00m,0000595676Hz,0000000000c,0000000.000s, 030.6C,00002191
2022-04-20 17:03:00 r, 00.00m,0000595757Hz,0000000000c,0000000.000s, 029.9C,00002191
2022-04-20 17:13:01 r, 00.00m,0000595815Hz,0000000000c,0000000.000s, 029.6C,00002191
2022-04-20 17:23:02 r, 00.00m,0000595859Hz,0000000000c,0000000.000s, 029.0C,00002191
2022-04-20 17:33:00 r, 00.00m,0000596015Hz,0000000000c,0000000.000s, 028.3C,00002191
2022-04-20 17:43:02 r, 00.00m,0000596112Hz,0000000000c,0000000.000s, 027.7C,00002191
2022-04-20 17:53:01 r, 00.00m,0000596202Hz,0000000000c,0000000.000s, 027.0C,00002191
2022-04-20 18:03:01 r, 00.00m,0000596253Hz,0000000000c,0000000.000s, 026.7C,00002191
2022-04-20 18:13:01 r, 00.00m,0000596397Hz,0000000000c,0000000.000s, 024.8C,00002191
2022-04-20 18:23:03 r, 00.00m,0000596300Hz,0000000000c,0000000.000s, 025.4C,00002191
2022-04-20 18:33:01 r, 00.00m,0000596475Hz,0000000000c,0000000.000s, 025.1C,00002191
2022-04-20 18:43:03 r, 00.00m,0000596461Hz,0000000000c,0000000.000s, 024.4C,00002191
2022-04-20 18:53:01 r, 00.00m,0000596588Hz,0000000000c,0000000.000s, 023.8C,00002191
2022-04-20 19:03:01 r, 00.00m,0000596698Hz,0000000000c,0000000.000s, 022.8C,00002191
2022-04-20 19:13:03 r, 00.00m,0000596765Hz,0000000000c,0000000.000s, 022.2C,00002191
2022-04-20 19:23:01 r, 00.00m,0000589240Hz,0000000000c,0000000.000s, 021.9C,00002191
2022-04-20 19:33:01 r, 00.00m,0000422320Hz,0000000000c,0000000.000s, 021.2C,00002191
2022-04-20 19:43:01 r, 05.89m,0000371500Hz,0000000000c,0000000.000s, 019.6C,00002191
2022-04-20 19:53:02 r, 00.00m,0000424300Hz,0000000000c,0000000.000s, 018.3C,00002191
2022-04-20 20:03:01 r, 06.08m,0000314248Hz,0000000000c,0000000.000s, 017.7C,00002191
2022-04-20 20:13:02 r, 06.19m,0000284625Hz,0000000000c,0000000.000s, 017.4C,00002191
2022-04-20 20:23:01 r, 07.56m,0000080552Hz,0000000000c,0000000.000s, 017.0C,00002191
2022-04-20 20:33:01 r, 08.75m,0000026690Hz,0000000000c,0000000.000s, 017.0C,00002191
2022-04-20 20:43:01 r, 09.73m,0000010821Hz,0000000000c,0000000.000s, 016.7C,00002191
2022-04-20 20:53:03 r, 11.66m,0000001827Hz,0000000000c,0000000.000s, 016.7C,00002191
2022-04-20 21:03:01 r, 13.36m,0000000380Hz,0000000000c,0000000.000s, 016.7C,00002191
2022-04-20 21:13:03 r, 14.87m,0000000094Hz,0000004879c,0000000.011s, 016.7C,00002191
2022-04-20 21:23:01 r, 16.61m,0000000020Hz,0000024127c,0000000.052s, 016.7C,00002191
2022-04-20 21:33:01 r, 18.15m,0000000004Hz,0000099834c,0000000.217s, 016.4C,00002191
2022-04-20 21:43:01 r, 18.78m,0000000002Hz,0000178361c,0000000.387s, 016.4C,00002191
2022-04-20 21:53:02 r, 18.95m,0000000002Hz,0000208197c,0000000.452s, 016.4C,00002191
2022-04-20 22:03:01 r, 19.01m,0000000002Hz,0000219956c,0000000.477s, 016.1C,00002191
2022-04-20 22:13:01 r, 19.00m,0000000002Hz,0000218927c,0000000.475s, 016.1C,00002191
2022-04-20 22:23:03 r, 19.22m,0000000001Hz,0000267678c,0000000.581s, 016.1C,00002191
2022-04-20 22:33:01 r, 19.08m,0000000002Hz,0000235292c,0000000.511s, 016.1C,00002191
2022-04-20 22:43:02 r, 18.98m,0000000002Hz,0000213429c,0000000.463s, 016.1C,00002191
2022-04-20 22:53:01 r, 19.40m,0000000002Hz,0000314924c,0000000.683s, 015.7C,00002191
2022-04-20 23:03:01 r, 19.74m,0000000001Hz,0000430054c,0000000.933s, 015.7C,00002191
2022-04-20 23:13:03 r, 20.03m,0000000000Hz,0000561447c,0000001.218s, 015.4C,00002191
2022-04-20 23:23:01 r, 19.71m,0000000002Hz,0000417578c,0000000.906s, 015.4C,00002191
2022-04-20 23:33:01 r, 19.72m,0000000001Hz,0000419401c,0000000.910s, 015.1C,00002191
2022-04-20 23:43:03 r, 19.39m,0000000001Hz,0000310148c,0000000.673s, 015.1C,00002191
2022-04-20 23:53:01 r, 19.56m,0000000001Hz,0000360884c,0000000.783s, 015.1C,00002191
